Hurghada, Egypt

7:13 PM EET on September 21, 2017 (GMT +0200)
Hurghada

Weather History for HEGN - April, 2013

Change the Weather History Date:

Monday, April 22, 2013

  Actual Average Record
Temperature  
Mean Temperature 72 °F -  
Max Temperature 82 °F 87 °F 104 °F (2016)
Min Temperature 61 °F 70 °F 60 °F (2003)
Cooling Degree Days 6    
Growing Degree Days 22 (Base 50)    
Moisture  
Dew Point 45 °F    
Average Humidity 38    
Maximum Humidity 53    
Minimum Humidity 21    
Precipitation  
Precipitation 0.00 in - - ()
Sea Level Pressure  
Sea Level Pressure 29.90 in    
Wind  
Wind Speed 9 mph ()    
Max Wind Speed 16 mph    
Max Gust Speed -    
Visibility 6.0 miles    
Events      
Averages and records for this station are not official NWS values.
T = Trace of Precipitation, MM = Missing Value Source: Averaged Metar Reports

Daily Weather History Graph

Daily Weather History Graph

Search for Another Location

Airport or City:

Trip Planner

Search our weather history database for the weather conditions in past years. The results will help you decide how hot, cold, wet, or windy it might be!

Date:

Astronomy

Apr. 22, 2013 Rise Set
Actual Time 5:14 AM EET 6:13 PM EET
Civil Twilight 4:50 AM EET 6:37 PM EET
Nautical Twilight 4:21 AM EET 7:06 PM EET
Astronomical Twilight 3:52 AM EET 7:35 PM EET
Moon 2:57 PM EET (4/22) 2:37 AM EET (4/22)
Length of Visible Light 13h 47m
Length of Day
12h 59m
Waxing Gibbous, 86% of the Moon is Illuminated
Apr 22
Waxing Gibbous
Apr 25
Full
May 2
Last Quarter
May 10
New
May 18
First Quarter

Hourly Weather History & Observations

Time (EET) Temp. Dew Point Humidity Pressure Visibility Wind Dir Wind Speed Gust Speed Precip Events Conditions
12:00 AM 66.2 °F 39.2 °F 37% 29.92 in - WNW 5.8 mph - N/A   Clear
1:00 AM 64.4 °F 41.0 °F 42% 29.89 in - NW 8.1 mph - N/A   Clear
2:00 AM 64 °F 41 °F 31% 29.89 in 6 mi WNW 5.8 mph - -  
2:00 AM 64.4 °F 41.0 °F 42% 29.89 in - WNW 5.8 mph - N/A   Clear
3:00 AM 62.6 °F 41.0 °F 45% 29.86 in - WNW 6.9 mph - N/A   Clear
4:00 AM 62.6 °F 42.8 °F 48% 29.89 in - NW 10.4 mph - N/A   Clear
5:00 AM 62.6 °F 42.8 °F 48% 29.89 in - WNW 9.2 mph - N/A   Clear
6:00 AM 62.6 °F 42.8 °F 48% 29.92 in - WNW 13.8 mph - N/A   Clear
7:00 AM 68.0 °F 48.2 °F 49% 29.92 in - WNW 16.1 mph - N/A   Clear
8:00 AM 70 °F 51 °F 41% 29.95 in 6 mi NW 12.7 mph - -  
8:00 AM 69.8 °F 51.8 °F 53% 29.95 in - NW 12.7 mph - N/A   Clear
9:00 AM 73.4 °F 50.0 °F 44% 29.95 in - NW 15.0 mph - N/A   Clear
10:00 AM 78.8 °F 46.4 °F 32% 29.95 in - North 16.1 mph - N/A   Clear
11:00 AM 78.8 °F 46.4 °F 32% 29.95 in - North 11.5 mph - N/A   Clear
12:00 PM 80.6 °F 48.2 °F 32% 29.92 in - NNE 13.8 mph - N/A   Clear
1:00 PM 82.4 °F 50.0 °F 32% 29.89 in - NNE 16.1 mph - N/A   Clear
2:00 PM 81 °F 49 °F 22% 29.88 in 6 mi NE 13.8 mph - -   Clear
2:00 PM 80.6 °F 48.2 °F 32% 29.86 in - NE 13.8 mph - N/A   Clear
3:00 PM 82.4 °F 44.6 °F 26% 29.83 in - NNE 12.7 mph - N/A   Clear
4:00 PM 82.4 °F 39.2 °F 21% 29.83 in - North 11.5 mph - N/A   Clear
5:00 PM 78.8 °F 55.4 °F 44% 29.86 in - North 10.4 mph - N/A   Clear
6:00 PM 75.2 °F 51.8 °F 44% 29.86 in - NNW 9.2 mph - N/A   Clear
7:00 PM 73.4 °F 48.2 °F 41% 29.89 in - NNW 9.2 mph - N/A   Clear
8:00 PM 73 °F 41 °F 21% 29.91 in 6 mi NNW 13.8 mph - -   Clear
8:00 PM 73.4 °F 41.0 °F 31% 29.89 in - NNW 13.8 mph - N/A   Clear
9:00 PM 71.6 °F 42.8 °F 35% 29.92 in - NW 11.5 mph - N/A   Clear
10:00 PM 69.8 °F 42.8 °F 38% 29.95 in - NNW 4.6 mph - N/A   Clear
11:00 PM 68.0 °F 44.6 °F 43% 29.95 in - WNW 10.4 mph - N/A   Clear